Showing default

QIANFAN-63, 62793

Orbit data source: Space-Track

QIANFAN-63, 62793 is a Chinese payload satellite in LEO that was launched on Thu, 23 Jan 2025 UTC via a CHANG ZHENG 6A launch vehicle from the Taiyaun Space Center, China (TSC). Payload-class satellites include a variety of spacecraft equipped with specific instruments for various scientific and technological missions. These include communications satellites like Starlink; space stations such as the ISS; scientific satellites like the Hubble; Earth observation satellites from companies like Planet Labs, Umbra, and HawkEye 360; GPS; miniature CubeSats for education and research; and military/defense satellites.

Loading next visibility...
Identifier
62793, 2025-016J
Orbit
LEO
Country
Flag of CNCN / PRC
Related business
Manufacturer
SECM
Mission
Operational Commercial Communications
Bus & Motor
QIANFAN, Unknown motor
Mass
267 kg wet, ~267 kg dry
Launch date (UTC)
2025-01-23 (11 months ago)
Launch vehicle
CHANG ZHENG 6A
Launch site
Taiyaun Space Center, China (TSC)
Object type
Payload
Rocket body
Debris
Shape & HBR
Box + 1 Pan, 1.2 m
Radar Cross Section
13.200 m², Large (>1 m²)

Expand to show TLE details & history
Last TLE update: 9 hours ago

TLE from 9 hours ago
0 QIANFAN-63
1 62793U 25016J   25352.54456963  .00000144  00000-0  20465-3 0  9999
2 62793  88.9783 102.4603 0014968 336.4146  23.6317 13.50985221 48058
Epoch: 2025-12-18T13:04Z
TLE epoch observation values (Epoch: 2025-12-18T13:04:10.816Z)
Latitude
-0.00002°
Longitude
179.01668°
Altitude
1,061.378 km
Speed
7.326 km/s
True Right ascension
06h 49m 50s
True Declination
0° 00' 00"
Sunlit
Object was in full shadow at epoch
Visualization orbit readout
Latitude
Unknown
Longitude
Unknown
Altitude
Unknown
Speed
Unknown
Apparent Right ascension
Unknown
Apparent Declination
Unknown
Sunlit
N/A
Visualization observer readout
Local Sidereal Time
20:56:05
Azimuth
Unknown
Elevation
Unknown
Doppler factor
Unknown
Orbital elements
Apogee altitude
1,076.829 km
Perigee altitude
1,054.545 km
Semi-major axis
7,443.824 km
Eccentricity
0.0015
Inclination
88.9783°
RAAN
102.4603°
Arg. of periapsis
336.4146°
True anomaly
23.70057°
Mean anomaly
23.6317°
Eccentric anomaly
23.66612°
Mean motion
3.37947 °/min
Orbital period
106.53 mins
BSTAR
0.00020465
Loading maneuver chart data...
Computing Atmospheric mass density...
Loading historical data...
Loading historical data...
Loading historical data...
Loading historical data...
Loading historical data...
Loading historical data...
Loading historical data...

Documentation

Showing up to 5 results
|